Pelly Island, Northwest Territories

12:13 PM MDT on September 22, 2017 (GMT -0600)
Pelly Island

Weather History for CWND - July, 2013

Change the Weather History Date:

Thursday, July 11, 2013

  Actual Average (CYUB) Record (CYUB)
Temperature  
Mean Temperature 33 °F -  
Max Temperature 36 °F 56 °F 86 °F (2013)
Min Temperature 30 °F 43 °F 30 °F (2000)
Degree Days  
Heating Degree Days 32    
Moisture  
Dew Point 30 °F    
Average Humidity 88    
Maximum Humidity 99    
Minimum Humidity 79    
Precipitation  
Precipitation 0.00 in - - ()
Sea Level Pressure  
Sea Level Pressure 30.19 in    
Wind  
Wind Speed 11 mph ()    
Max Wind Speed 16 mph    
Max Gust Speed -    
Averages and records for this station are not official NWS values.
T = Trace of Precipitation, MM = Missing Value Source: Averaged Metar Reports

Daily Weather History Graph

Daily Weather History Graph

Search for Another Location

Airport or City:

Trip Planner

Search our weather history database for the weather conditions in past years. The results will help you decide how hot, cold, wet, or windy it might be!

Date:

Astronomy

Dec. 31, 1969 Rise Set
Actual Time Sun does not set Sun does not set
Civil Twilight Sun does not set Sun does not set
Nautical Twilight Sun does not set Sun does not set
Astronomical Twilight Sun does not set Sun does not set
Moon 10:05 AM MDT (7/11) 1:00 AM MDT (7/11)
Length of Visible Light 24h 00m
Length of Day
24h 00m
Waxing Crescent, 11% of the Moon is Illuminated
Jul 11
Waxing Crescent
Jul 15
First Quarter
Jul 22
Full
Jul 29
Last Quarter
Aug 6
New

Hourly Weather History & Observations

Time (MDT) Temp. Windchill Dew Point Humidity Pressure Visibility Wind Dir Wind Speed Gust Speed Precip Events Conditions
12:00 AM 36 °F - 33 °F 82% 30.13 in - North 12.7 mph - -  
12:00 AM 35.8 °F 27.3 °F 31.5 °F 84% 30.13 in - North 12.7 mph - N/A   Unknown
1:00 AM 35.1 °F 25.9 °F 31.8 °F 88% 30.12 in - North 13.8 mph - N/A   Unknown
2:00 AM 35.4 °F 27.3 °F 31.3 °F 85% 30.13 in - North 11.5 mph - N/A   Unknown
3:00 AM 34.2 °F 24.0 °F 31.1 °F 89% 30.14 in - North 16.1 mph - N/A   Unknown
4:00 AM 31.6 °F 21.6 °F 30.2 °F 94% 30.16 in - North 13.8 mph - N/A   Unknown
5:00 AM 31.1 °F 20.5 °F 29.5 °F 94% 30.17 in - North 15.0 mph - N/A   Unknown
6:00 AM 31 °F - 29 °F 92% 30.17 in - NNE 11.5 mph - -  
6:00 AM 30.9 °F 21.7 °F 29.5 °F 94% 30.17 in - NNE 11.5 mph - N/A   Unknown
7:00 AM 30.7 °F 20.9 °F 29.3 °F 94% 30.18 in - NNE 12.7 mph - N/A   Unknown
8:00 AM 31.6 °F 23.1 °F 30.2 °F 94% 30.18 in - North 10.4 mph - N/A   Unknown
9:00 AM 31.8 °F 23.3 °F 30.4 °F 94% 30.19 in - NNE 10.4 mph - N/A   Unknown
10:00 AM 32.0 °F 23.0 °F 30.6 °F 94% 30.19 in - North 11.5 mph - N/A   Unknown
11:00 AM 31.3 °F 22.1 °F 30.9 °F 99% 30.19 in - NNE 11.5 mph - N/A   Unknown
12:00 PM 34 °F - 30 °F 81% 30.19 in - North 12.7 mph - -  
12:00 PM 33.6 °F 24.6 °F 30.4 °F 88% 30.19 in - North 12.7 mph - N/A   Unknown
1:00 PM 34.3 °F 25.5 °F 30.4 °F 85% 30.20 in - North 12.7 mph - N/A   Unknown
1:20 PM 30.0 °F - - N/A% - - North - - N/A   Unknown
2:00 PM 34.2 °F 25.2 °F 29.7 °F 84% 30.21 in - North 12.7 mph - N/A   Unknown
3:00 PM 33.8 °F 25.3 °F 29.8 °F 85% 30.22 in - NNE 11.5 mph - N/A   Unknown
4:00 PM 34.3 °F 26.5 °F 29.5 °F 82% 30.21 in - North 10.4 mph - N/A   Unknown
5:00 PM 34.3 °F 25.9 °F 28.8 °F 80% 30.22 in - North 11.5 mph - N/A   Unknown
6:00 PM 31 °F - 29 °F 88% 30.22 in - North 6.9 mph - -  
6:00 PM 36.3 °F 28.9 °F 30.4 °F 79% 30.22 in - North 10.4 mph - N/A   Unknown
7:00 PM 33.6 °F 25.6 °F 29.3 °F 84% 30.23 in - North 10.4 mph - N/A   Unknown
8:00 PM 33.3 °F 25.7 °F 29.1 °F 85% 30.23 in - North 9.2 mph - N/A   Unknown
9:00 PM 32.9 °F 25.3 °F 29.7 °F 88% 30.22 in - North 9.2 mph - N/A   Unknown
10:00 PM 32.0 °F 24.8 °F 29.7 °F 91% 30.22 in - North 8.1 mph - N/A   Unknown
11:00 PM 31.3 °F 23.9 °F 28.9 °F 91% 30.22 in - North 8.1 mph - N/A   Unknown